Date String (YYYY-MM-DD hh:mm:ss) UTC,Instrument flags,absolute air pressure of the measurement (hPa),sample flow rate (lpm),inlet stack bypass flow (lpm),air temperature of the measurement (°C),ambient temperature measured by the external sensor (°C),aerosol sample conditioner tube jacket temperature (°C),OPC LED temperature (°C),internal box temperature (°C),relative humidity of the measurement (%),span deviation,mass concentration of particles derived from Lorenz-Mie calculation of OPC scattering (μg/m³),mass concentration of particles derived from Lorenz-Mie calculation of OPC scattering (μg/m³),mass concentration of particles derived from Lorenz-Mie calculation of OPC scattering (μg/m³)
DateTimeUTC,F1_M11,P_M11,Q1_M11,Q2_M11,T1_M11,T2_M11,T3_M11,T4_M11,T5_M11,U1_M11,ZSPAN_M11,X2_M11,X0_M11,X1_M11
2024-05-08 00:00:00,SystemResetWarning,0817.8,5.00,000.00,023.6,022.9,000.0,031.8,025.3,017.5,0000.0,0000.62,0003.75,0000.27
2024-05-08 00:01:00,SystemResetWarning,0817.8,5.00,000.00,023.6,022.9,000.0,031.8,025.3,018.2,0000.0,0000.61,0003.37,0000.27
2024-05-08 00:02:00,SystemResetWarning,0817.8,4.99,000.00,023.6,022.9,000.0,031.8,025.3,018.8,0000.0,0000.63,0003.44,0000.27
2024-05-08 00:03:00,SystemResetWarning,0817.8,4.99,000.00,023.6,022.8,000.0,031.8,025.3,018.2,0000.0,0000.62,0003.11,0000.27
2024-05-08 00:04:00,SystemResetWarning,0817.7,5.00,000.00,023.5,022.8,000.0,031.8,025.3,018.1,0000.0,0000.61,0003.09,0000.27
2024-05-08 00:05:00,SystemResetWarning,0817.7,5.00,000.00,023.5,022.8,000.0,031.8,025.2,018.0,0000.0,0000.59,0003.06,0000.26
2024-05-08 00:06:00,SystemResetWarning,0817.8,5.00,000.00,023.5,022.7,000.0,031.9,025.2,018.0,0000.0,0000.55,0002.32,0000.25
2024-05-08 00:07:00,SystemResetWarning,0817.8,5.00,000.00,023.5,022.7,000.0,031.9,025.2,017.6,0000.0,0000.49,0001.94,0000.23
2024-05-08 00:08:00,SystemResetWarning,0817.8,5.00,000.00,023.5,022.7,000.0,031.9,025.2,017.3,0000.0,0000.46,0001.86,0000.23
2024-05-08 00:09:00,SystemResetWarning,0817.8,5.00,000.00,023.5,022.7,000.0,031.8,025.2,017.6,0000.0,0000.45,0001.69,0000.22
2024-05-08 00:10:00,SystemResetWarning,0817.8,5.00,000.00,023.5,022.7,000.0,031.9,025.2,017.7,0000.0,0000.41,0000.98,0000.21
2024-05-08 00:11:00,SystemResetWarning,0817.8,5.00,000.00,023.5,022.7,000.0,031.9,025.2,017.4,0000.0,0000.41,0000.99,0000.21
2024-05-08 00:12:00,SystemResetWarning,0817.8,5.00,000.00,023.4,022.6,000.0,031.9,025.2,017.2,0000.0,0000.42,0001.04,0000.22
2024-05-08 00:13:00,SystemResetWarning,0817.8,5.00,000.00,023.4,022.6,000.0,031.9,025.1,016.9,0000.0,0000.41,0000.95,0000.22
2024-05-08 00:14:00,SystemResetWarning,0817.7,5.00,000.00,023.4,022.6,000.0,031.9,025.1,017.2,0000.0,0000.41,0000.90,0000.23
2024-05-08 00:15:00,SystemResetWarning,0817.7,5.00,000.00,023.4,022.6,000.0,031.9,025.1,017.0,0000.0,0000.42,0000.91,0000.24
2024-05-08 00:16:00,SystemResetWarning,0817.8,5.00,000.00,023.4,022.6,000.0,031.9,025.1,017.0,0000.0,0000.43,0001.01,0000.25
2024-05-08 00:17:00,SystemResetWarning,0817.8,5.00,000.00,023.4,022.6,000.0,031.9,025.1,016.4,0000.0,0000.48,0001.13,0000.27
2024-05-08 00:18:00,SystemResetWarning,0817.9,5.00,000.00,023.3,022.6,000.0,031.9,025.1,015.9,0000.0,0000.53,0001.27,0000.30
2024-05-08 00:19:00,SystemResetWarning,0818.0,5.00,000.00,023.3,022.6,000.0,031.8,025.0,016.0,0000.0,0000.60,0001.50,0000.31
2024-05-08 00:20:00,SystemResetWarning,0818.0,5.00,000.00,023.3,022.6,000.0,031.8,025.0,015.9,0000.0,0000.64,0001.61,0000.33
2024-05-08 00:21:00,SystemResetWarning,0818.0,5.00,000.00,023.3,022.5,000.0,031.8,025.0,016.1,0000.0,0000.68,0001.73,0000.36
2024-05-08 00:22:00,SystemResetWarning,0818.1,4.99,000.00,023.3,022.5,000.0,031.8,024.9,016.6,0000.0,0000.67,0001.62,0000.38
2024-05-08 00:23:00,SystemResetWarning,0818.0,5.00,000.00,023.2,022.5,000.0,031.8,024.8,017.1,0000.0,0000.71,0001.68,0000.39
2024-05-08 00:24:00,SystemResetWarning,0818.0,5.00,000.00,023.2,022.5,000.0,031.8,024.9,017.1,0000.0,0000.73,0001.77,0000.40
2024-05-08 00:25:00,SystemResetWarning,0817.8,5.00,000.00,023.2,022.5,000.0,031.7,024.8,017.5,0000.0,0000.77,0001.92,0000.41
2024-05-08 00:26:00,SystemResetWarning,0817.7,5.00,000.00,023.2,022.4,000.0,031.7,024.8,017.4,0000.0,0000.80,0002.11,0000.42
2024-05-08 00:27:00,SystemResetWarning,0817.8,5.00,000.00,023.2,022.4,000.0,031.7,024.8,016.3,0000.0,0000.85,0002.39,0000.44
2024-05-08 00:28:00,SystemResetWarning,0817.9,5.00,000.00,023.1,022.4,000.0,031.7,024.8,015.7,0000.0,0000.88,0002.62,0000.46
2024-05-08 00:29:00,SystemResetWarning,0817.8,5.00,000.00,023.1,022.4,000.0,031.7,024.8,015.5,0000.0,0000.89,0002.69,0000.46
2024-05-08 00:30:00,SystemResetWarning,0817.7,5.00,000.00,023.1,022.4,000.0,031.7,024.8,015.4,0000.0,0000.87,0002.48,0000.47
2024-05-08 00:31:00,SystemResetWarning,0817.8,5.01,000.00,023.1,022.4,000.0,031.7,024.8,015.2,0000.0,0000.87,0002.47,0000.47
2024-05-08 00:32:00,SystemResetWarning,0817.9,5.00,000.00,023.1,022.4,000.0,031.6,024.8,015.9,0000.0,0000.89,0002.47,0000.47
2024-05-08 00:33:00,SystemResetWarning,0817.9,5.00,000.00,023.1,022.4,000.0,031.6,024.8,016.7,0000.0,0000.91,0002.52,0000.47
2024-05-08 00:34:00,SystemResetWarning,0817.9,5.00,000.00,023.1,022.3,000.0,031.6,024.8,017.0,0000.0,0000.90,0002.51,0000.46
2024-05-08 00:35:00,SystemResetWarning,0818.0,4.99,000.00,023.1,022.3,000.0,031.6,024.8,016.6,0000.0,0000.87,0002.41,0000.45
2024-05-08 00:36:00,SystemResetWarning,0818.0,5.00,000.00,023.0,022.3,000.0,031.6,024.7,016.8,0000.0,0000.88,0002.36,0000.45
2024-05-08 00:37:00,SystemResetWarning,0818.0,4.99,000.00,023.0,022.3,000.0,031.6,024.7,016.6,0000.0,0000.87,0002.25,0000.45
2024-05-08 00:38:00,SystemResetWarning,0818.0,5.00,000.00,023.0,022.3,000.0,031.6,024.7,016.7,0000.0,0000.86,0001.90,0000.44
2024-05-08 00:39:00,SystemResetWarning,0818.0,5.00,000.00,023.0,022.3,000.0,031.6,024.7,016.9,0000.0,0000.82,0001.64,0000.43
2024-05-08 00:40:00,SystemResetWarning,0818.0,5.00,000.00,023.0,022.2,000.0,031.5,024.7,016.9,0000.0,0000.79,0001.48,0000.43
2024-05-08 00:41:00,SystemResetWarning,0818.0,5.00,000.00,023.0,022.2,000.0,031.5,024.7,016.9,0000.0,0000.80,0001.53,0000.43
2024-05-08 00:42:00,SystemResetWarning,0818.0,5.00,000.00,023.0,022.2,000.0,031.5,024.7,017.2,0000.0,0000.85,0001.73,0000.43
2024-05-08 00:43:00,SystemResetWarning,0818.0,5.00,000.00,023.0,022.2,000.0,031.5,024.7,017.5,0000.0,0000.84,0001.74,0000.43
2024-05-08 00:44:00,SystemResetWarning,0818.0,5.00,000.00,023.0,022.2,000.0,031.5,024.7,017.5,0000.0,0000.85,0003.56,0000.42
2024-05-08 00:45:00,SystemResetWarning,0818.0,5.00,000.00,023.0,022.2,000.0,031.5,024.7,017.6,0000.0,0000.87,0003.71,0000.42
2024-05-08 00:46:00,SystemResetWarning,0818.0,4.99,000.00,023.0,022.2,000.0,031.5,024.8,017.9,0000.0,0000.91,0004.45,0000.42
2024-05-08 00:47:00,SystemResetWarning,0818.0,5.00,000.00,023.0,022.2,000.0,031.4,024.8,018.1,0000.0,0000.91,0004.98,0000.42
2024-05-08 00:48:00,SystemResetWarning,0818.0,5.00,000.00,023.0,022.3,000.0,031.4,024.8,018.3,0000.0,0000.91,0005.29,0000.42
2024-05-08 00:49:00,SystemResetWarning,0818.0,5.00,000.00,023.0,022.3,000.0,031.4,024.8,018.4,0000.0,0000.86,0005.27,0000.41
2024-05-08 00:50:00,SystemResetWarning,0818.0,4.99,000.00,023.0,022.2,000.0,031.4,024.8,018.4,0000.0,0000.89,0005.62,0000.40
2024-05-08 00:51:00,SystemResetWarning,0818.0,5.00,000.00,023.0,022.2,000.0,031.4,024.7,018.5,0000.0,0000.93,0005.71,0000.39
2024-05-08 00:52:00,SystemResetWarning,0818.0,5.00,000.00,023.0,022.2,000.0,031.4,024.7,018.5,0000.0,0000.92,0005.67,0000.38
2024-05-08 00:53:00,SystemResetWarning,0818.0,5.00,000.00,022.9,022.2,000.0,031.4,024.7,018.5,0000.0,0000.87,0005.47,0000.37
2024-05-08 00:54:00,SystemResetWarning,0818.0,5.00,000.00,022.9,022.2,000.0,031.4,024.7,018.3,0000.0,0000.89,0005.51,0000.36
2024-05-08 00:55:00,SystemResetWarning,0818.0,5.00,000.00,022.9,022.1,000.0,031.4,024.7,018.4,0000.0,0000.87,0004.31,0000.37
2024-05-08 00:56:00,SystemResetWarning,0818.0,5.00,000.00,022.9,022.1,000.0,031.4,024.6,018.4,0000.0,0000.84,0005.23,0000.37
2024-05-08 00:57:00,SystemResetWarning,0818.0,5.00,000.00,022.9,022.1,000.0,031.4,024.6,018.4,0000.0,0000.81,0004.85,0000.37
2024-05-08 00:58:00,SystemResetWarning,0818.0,5.00,000.00,022.9,022.1,000.0,031.4,024.6,018.5,0000.0,0000.81,0004.36,0000.36
2024-05-08 00:59:00,SystemResetWarning,0818.0,5.00,000.00,022.9,022.1,000.0,031.4,024.6,018.5,0000.0,0000.80,0003.90,0000.36
